Wind_Speed
56 55 53 51 49 47 45 44 42 40 39 38 37 35 35 35 36 37 37 37 37 38 39 40 41 42 44 45 47 49 50 52 53 54 55 56 57 57
55 53 52 50 48 46 44 43 42 40 38 37 37 35 35 35 36 37 37 37 38 38 39 40 41 42 45 46 48 49 50 52 53 54 55 56 56 56
52 52 51 50 47 46 44 43 41 40 38 37 36 36 36 36 35 35 36 37 38 38 38 39 41 43 45 46 48 49 51 53 53 54 55 55 55 55
51 51 50 49 46 45 44 44 42 39 38 37 37 36 36 35 34 35 36 37 37 37 38 40 42 43 45 46 48 50 51 52 53 53 54 54 55 55
50 49 50 48 45 44 43 42 41 39 38 37 36 36 35 34 34 34 35 36 36 37 39 40 42 43 45 47 49 50 51 52 52 53 53 53 53 54
49 48 48 47 45 43 42 41 39 38 38 37 35 35 34 34 34 33 34 35 36 37 39 40 42 43 45 48 49 50 51 51 52 52 51 52 53 53
47 46 44 43 44 43 41 39 37 36 36 36 35 34 33 33 33 32 33 34 35 37 39 41 42 44 46 48 49 50 50 51 51 51 51 52 52 53
45 44 43 42 41 40 38 37 36 35 35 33 33 32 32 32 32 32 33 34 36 37 39 40 42 44 46 47 48 49 50 50 50 50 50 51 52 53
42 42 41 41 39 38 37 35 34 33 32 31 31 31 30 31 31 32 33 34 36 37 38 40 42 43 45 46 47 48 49 50 49 49 50 51 51 52
39 38 39 40 38 37 36 34 33 32 32 31 30 30 30 30 31 32 33 35 36 37 38 39 41 43 45 46 47 48 49 49 49 49 49 50 51 52
38 37 39 39 37 35 34 33 32 32 31 31 30 30 30 31 31 32 33 34 35 36 38 39 41 43 45 46 47 48 48 48 48 49 49 49 49 50
39 38 38 36 36 35 34 33 31 30 30 30 29 29 30 31 31 32 33 33 34 36 37 40 42 43 45 46 47 47 47 47 48 47 47 47 48 49
39 36 34 34 35 35 33 31 30 30 29 29 28 28 29 30 31 31 32 33 34 36 38 40 42 43 44 45 45 46 46 46 46 45 45 46 48 49
36 34 33 33 34 34 32 31 30 28 27 27 27 27 28 29 30 31 31 32 34 36 38 40 41 42 43 43 44 44 44 44 43 43 43 45 47 48
34 33 32 32 32 32 30 29 28 27 26 26 27 27 28 28 29 30 31 32 34 36 38 39 39 40 41 42 42 41 41 41 41 42 43 45 46 46
33 32 31 30 30 30 29 28 27 26 26 26 26 27 27 28 29 30 31 32 33 35 36 37 38 39 40 40 40 39 40 40 40 41 43 44 45 45
32 31 29 29 30 30 29 28 27 26 26 25 25 26 26 27 28 29 30 31 32 33 35 35 36 37 38 38 38 39 39 39 40 41 42 43 44 43
31 30 29 28 30 31 29 27 26 25 24 24 24 25 26 27 27 28 29 29 30 31 33 34 35 36 36 36 37 37 37 39 40 41 42 42 41 41
31 29 28 28 28 28 28 26 26 25 25 24 24 25 26 26 27 27 27 28 28 30 32 33 34 34 34 34 34 35 36 38 39 40 40 40 39 39
31 29 28 28 28 28 28 27 27 26 25 25 25 24 25 25 25 25 26 26 28 30 31 32 32 32 32 32 33 34 35 37 37 38 38 38 38 37
32 31 30 29 28 27 27 27 27 26 26 25 25 24 24 23 23 24 25 26 27 29 29 29 30 30 30 31 32 34 35 36 36 36 36 35 35 34
32 30 30 29 28 27 27 26 26 25 24 24 24 23 22 22 22 22 24 25 26 27 28 28 28 28 29 30 31 32 33 34 34 34 34 33 32 31
32 31 30 28 28 27 26 26 25 24 24 23 23 22 21 21 22 22 23 24 26 26 25 25 25 26 27 28 29 30 31 32 33 33 32 30 29 29
Wind_Direction
232 232 234 236 240 241 244 248 251 253 258 261 263 267 270 274 279 283 286 289 293 297 300 302 304 306 308 310 312 312 314 315 316 316 316 317 317 317
229 229 231 234 237 239 241 245 249 252 256 259 261 266 269 274 278 281 285 289 294 297 300 302 304 306 308 310 312 313 314 316 317 317 317 318 318 318
227 228 229 231 235 237 240 244 248 251 254 257 260 265 269 274 277 280 285 290 294 297 300 302 304 306 309 311 313 314 315 316 317 318 318 319 320 320
226 226 228 230 233 236 239 243 246 251 254 257 260 264 269 273 276 280 285 290 293 298 301 303 305 308 310 312 313 315 316 317 318 318 319 319 320 321
224 226 227 229 231 235 239 242 246 249 253 257 259 264 268 271 275 279 285 289 294 298 301 304 306 309 311 313 314 316 317 318 318 319 320 320 322 322
223 225 226 227 230 233 237 240 244 248 252 255 258 263 267 270 273 280 285 290 294 298 302 305 307 310 312 314 315 316 317 317 318 320 321 322 323 324
223 223 224 228 231 232 235 239 242 247 251 254 257 261 266 269 274 281 286 290 295 299 302 305 308 311 313 315 316 317 317 318 319 320 321 322 324 325
222 221 223 227 231 232 234 237 241 247 250 252 256 260 264 268 274 280 286 290 295 299 302 306 309 312 314 315 317 317 319 320 320 321 321 323 324 325
219 220 222 225 229 230 232 237 240 242 246 251 255 259 264 269 275 280 286 292 296 299 303 307 310 312 314 316 317 318 319 320 320 321 322 323 324 326
222 222 223 224 226 227 231 235 239 242 246 249 253 259 266 270 275 281 288 293 297 301 305 308 311 313 314 316 317 319 320 320 320 321 322 323 324 326
218 222 223 224 223 225 230 235 239 243 246 249 255 260 265 271 276 282 289 294 298 302 306 309 311 313 315 316 318 319 320 320 321 322 323 324 326 327
216 219 222 224 225 225 229 234 239 244 247 251 257 262 268 273 278 284 289 294 299 302 306 308 310 313 316 317 318 319 321 322 323 323 324 326 327 328
215 217 219 223 224 227 231 235 239 243 246 251 259 265 271 276 281 285 290 295 298 302 306 308 311 314 317 318 319 320 322 323 324 325 326 328 329 330
216 217 219 222 225 227 230 234 238 242 247 254 260 266 272 277 282 286 289 294 298 303 306 309 312 315 317 318 320 321 323 324 325 327 328 329 330 331
215 218 220 222 225 226 230 234 238 243 250 256 261 268 273 277 282 286 289 294 299 304 308 311 313 316 318 320 321 323 324 325 327 328 329 330 331 332
213 217 220 221 224 227 231 235 239 243 249 255 263 268 274 278 283 287 291 295 300 305 309 312 315 318 320 321 323 325 326 327 329 330 331 332 333 334
215 217 220 224 227 229 231 236 238 243 250 256 262 269 275 280 284 288 292 296 301 306 310 313 316 319 321 322 324 327 328 329 330 331 332 333 334 335
213 217 221 226 230 230 233 236 238 244 250 256 262 268 274 279 283 287 293 298 303 307 310 313 317 319 321 323 326 328 328 330 331 333 334 335 336 337
213 217 220 224 226 228 230 234 238 243 249 255 262 268 274 278 282 287 292 297 303 307 310 314 317 319 320 323 325 327 329 331 333 334 336 337 338 339
212 216 220 222 223 226 228 233 236 241 247 255 262 268 274 278 282 287 293 298 304 308 311 314 317 319 321 323 325 328 330 333 335 336 337 338 339 341
213 217 219 221 223 225 229 232 237 243 249 255 261 268 273 278 281 286 293 299 305 309 312 315 319 321 322 325 327 329 331 334 336 338 339 340 342 344
214 216 217 221 224 228 231 235 239 244 249 255 261 266 271 276 281 288 295 302 307 310 313 316 320 322 323 326 328 330 333 336 338 339 341 343 346 349
214 215 216 219 222 227 231 234 239 243 248 255 261 265 269 275 282 289 297 304 309 311 314 317 321 323 324 326 329 332 335 338 340 342 344 346 349 353
Height
5651 5660 5667 5676 5682 5689 5695 5699 5703 5706 5709 5712 5713 5714 5714 5714 5714 5713 5711 5709 5706 5703 5699 5695 5690 5685 5680 5674 5667 5660 5653 5646 5638 5629 5621 5612 5603 5594
5639 5647 5656 5664 5672 5678 5684 5689 5693 5697 5700 5703 5705 5706 5706 5706 5706 5704 5703 5701 5698 5695 5691 5687 5682 5677 5671 5665 5658 5651 5644 5636 5628 5619 5610 5601 5592 5583
5627 5636 5645 5653 5661 5668 5674 5679 5684 5688 5691 5694 5696 5697 5697 5698 5697 5696 5695 5693 5690 5687 5683 5678 5674 5668 5662 5656 5649 5642 5634 5626 5617 5609 5600 5591 5582 5573
5617 5626 5634 5643 5651 5658 5664 5670 5675 5679 5682 5685 5687 5688 5688 5689 5689 5688 5687 5684 5682 5678 5674 5670 5665 5659 5653 5647 5640 5633 5625 5616 5608 5599 5590 5582 5572 5562
5608 5617 5625 5634 5642 5649 5655 5661 5666 5670 5673 5676 5678 5679 5680 5681 5681 5680 5678 5676 5673 5670 5666 5661 5656 5651 5645 5638 5631 5623 5615 5607 5598 5590 5580 5571 5562 5553
5599 5608 5617 5625 5633 5640 5646 5651 5656 5661 5665 5668 5670 5671 5672 5672 5672 5672 5670 5668 5665 5662 5657 5653 5648 5642 5636 5629 5622 5614 5605 5597 5589 5580 5571 5562 5553 5544
5591 5599 5608 5617 5624 5631 5638 5643 5648 5652 5656 5659 5661 5663 5664 5664 5665 5664 5662 5660 5657 5654 5649 5644 5639 5633 5626 5619 5612 5604 5596 5588 5579 5571 5562 5553 5544 5535
5584 5592 5600 5609 5616 5623 5629 5634 5640 5644 5648 5651 5653 5655 5656 5657 5657 5656 5654 5652 5650 5647 5641 5636 5630 5624 5617 5610 5602 5595 5587 5578 5570 5562 5553 5545 5536 5526
5577 5586 5594 5601 5608 5615 5621 5626 5631 5636 5640 5643 5645 5647 5649 5649 5649 5648 5646 5644 5641 5637 5633 5628 5622 5615 5609 5601 5594 5586 5578 5570 5561 5553 5545 5536 5527 5518
5571 5580 5587 5595 5602 5608 5614 5619 5624 5629 5633 5635 5638 5640 5641 5641 5641 5640 5638 5636 5633 5629 5625 5620 5613 5607 5600 5593 5585 5577 5569 5561 5553 5545 5536 5528 5519 5509
5566 5573 5581 5589 5595 5601 5607 5612 5617 5621 5624 5628 5630 5632 5632 5633 5633 5632 5630 5628 5625 5621 5616 5611 5605 5599 5591 5584 5577 5569 5561 5553 5544 5536 5528 5519 5511 5501
5560 5567 5575 5582 5588 5594 5600 5605 5610 5614 5617 5621 5623 5624 5625 5625 5625 5624 5622 5620 5617 5613 5608 5603 5597 5591 5584 5576 5568 5561 5552 5544 5536 5528 5520 5512 5503 5494
5555 5562 5569 5576 5581 5587 5594 5599 5603 5607 5610 5613 5615 5617 5618 5618 5617 5616 5614 5612 5609 5605 5600 5595 5589 5582 5575 5568 5560 5552 5544 5536 5528 5520 5512 5504 5496 5487
5550 5557 5563 5570 5576 5582 5587 5592 5596 5600 5603 5606 5608 5610 5611 5611 5610 5608 5606 5603 5601 5597 5592 5586 5581 5574 5567 5560 5553 5545 5536 5529 5521 5513 5506 5497 5489 5479
5544 5551 5558 5564 5570 5576 5581 5586 5590 5594 5597 5600 5602 5603 5604 5603 5602 5600 5598 5596 5593 5589 5584 5578 5572 5566 5560 5553 5545 5538 5531 5523 5515 5507 5499 5491 5483 5474
5539 5546 5552 5558 5564 5570 5574 5579 5584 5588 5591 5593 5595 5596 5596 5595 5594 5593 5591 5588 5585 5581 5576 5570 5565 5559 5553 5546 5539 5531 5524 5517 5510 5502 5493 5485 5477 5468
5534 5540 5547 5553 5559 5564 5569 5574 5578 5581 5584 5586 5588 5589 5589 5588 5587 5586 5584 5581 5578 5574 5569 5564 5558 5552 5546 5540 5533 5526 5518 5511 5504 5496 5488 5479 5471 5462
5529 5536 5542 5547 5553 5558 5563 5568 5572 5575 5578 5580 5581 5582 5582 5581 5580 5579 5577 5575 5571 5567 5562 5557 5552 5546 5540 5534 5528 5521 5513 5506 5498 5491 5483 5475 5466 5458
5523 5530 5536 5542 5547 5552 5557 5562 5566 5569 5571 5573 5574 5575 5575 5575 5574 5572 5570 5568 5564 5560 5556 5551 5546 5540 5535 5529 5523 5516 5509 5501 5494 5486 5478 5470 5462 5454
5517 5524 5531 5536 5541 5546 5551 5555 5559 5562 5564 5566 5568 5568 5568 5568 5567 5566 5564 5561 5558 5554 5550 5545 5540 5535 5530 5524 5518 5512 5505 5498 5490 5482 5474 5466 5458 5450
5512 5519 5525 5530 5536 5540 5545 5549 5553 5556 5558 5560 5561 5562 5562 5561 5561 5559 5557 5555 5552 5548 5544 5539 5534 5529 5524 5518 5513 5507 5501 5494 5486 5479 5471 5464 5456 5449
5506 5512 5519 5524 5530 5535 5539 5543 5546 5549 5551 5553 5555 5555 5555 5555 5555 5553 5551 5549 5546 5542 5538 5533 5529 5524 5519 5514 5509 5502 5496 5489 5482 5475 5468 5461 5454 5447
5500 5506 5512 5518 5523 5528 5532 5536 5540 5543 5545 5547 5548 5549 5549 5549 5549 5547 5546 5543 5540 5536 5532 5528 5524 5519 5515 5510 5505 5499 5492 5486 5479 5472 5466 5459 5453 5446